This is the latest recevied weather packets stored in our database for station/object KB5DPX. If no packets are shown the sender has not sent any weather packets the latest 10 day(s).
| Time | Temp. | Humidity | Pressure | Rain* | Wind** | Luminosity | Snow |
|---|---|---|---|---|---|---|---|
| 1778099259 | 5.56° C | 59% | 1013.4 hPa | 0 mm | - | 427 W/m² | - |
| 1778098961 | 5.56° C | 58% | 1013.4 hPa | 0 mm | - | 475 W/m² | - |
| 1778098643 | 6.11° C | 59% | 1013.5 hPa | 0 mm | - | 443 W/m² | - |
| 1778098357 | 6.11° C | 57% | 1013.4 hPa | 0 mm | - | 482 W/m² | - |
| 1778098059 | 6.11° C | 58% | 1013.5 hPa | 0 mm | - | 515 W/m² | - |
| 1778097739 | 6.11° C | 57% | 1013.5 hPa | 0 mm | - | 459 W/m² | - |
| 1778097460 | 6.11° C | 59% | 1013.5 hPa | 0 mm | - | 499 W/m² | - |
| 1778097163 | 6.11° C | 58% | 1013.5 hPa | 0 mm | - | 566 W/m² | - |
| 1778096867 | 6.11° C | 57% | 1013.5 hPa | 0 mm | - | 555 W/m² | - |
| 1778096550 | 6.11° C | 59% | 1013.4 hPa | 0 mm | - | 512 W/m² | - |
| 1778096262 | 6.11° C | 59% | 1013.4 hPa | 0 mm | - | 512 W/m² | - |
| 1778095965 | 6.11° C | 60% | 1013.4 hPa | 0 mm | - | 487 W/m² | - |
| 1778095661 | 5.56° C | 59% | 1013.4 hPa | 0 mm | - | 478 W/m² | - |
| 1778095361 | 5.56° C | 60% | 1013.5 hPa | 0 mm | - | 531 W/m² | - |
| 1778095043 | 5.56° C | 59% | 1013.5 hPa | 0 mm | - | 526 W/m² | - |
| 1778094753 | 6.11° C | 60% | 1013.5 hPa | 0 mm | - | 466 W/m² | - |
| 1778094456 | 6.11° C | 60% | 1013.5 hPa | 0 mm | - | 526 W/m² | - |
| 1778094139 | 5.56° C | 61% | 1013.5 hPa | 0 mm | - | 628 W/m² | - |
| 1778093864 | 6.11° C | 60% | 1013.5 hPa | 0 mm | - | 589 W/m² | - |
| 1778093548 | 6.11° C | 61% | 1013.5 hPa | 0 mm | - | 951 W/m² | - |
| 1778093261 | 6.11° C | 59% | 1013.4 hPa | 0 mm | - | 951 W/m² | - |
| 1778092961 | 6.11° C | 61% | 1013.5 hPa | 0 mm | - | 1018 W/m² | - |
| 1778092664 | 6.11° C | 61% | 1013.5 hPa | 0 mm | - | 617 W/m² | - |
| 1778092368 | 6.11° C | 64% | 1013.5 hPa | 0 mm | - | 807 W/m² | - |
| 1778092064 | 6.11° C | 65% | 1013.4 hPa | 0 mm | - | 691 W/m² | - |
* Rain latest hour (hover to see other rain measurements)
** Current wind speed in m/s (hover to see current wind gust speed)